Simultaneous Nadir Overpasses (SNOs) Predictions

Prediction of SNOs between NOAA-19 and TERRA Satellite Orbit:

Table of predicted SNOs for the next 14.0 days since TLE Epoch: 3/23/2013
Index Date (NOAA-19) Time (NOAA-19) Lat,Lon (NOAA-19) SZA (NOAA-19 ) Date (TERRA) Time (TERRA) Lat,Lon (TERRA) SZA (TERRA ) Distance(km) Time Diff (sec)
1 03/24/2013 22:05:11 -69.43, 28.33 112.43 03/24/2013 22:06:21 -69.41, 28.39 112.45 2.91 70
2 03/24/2013 22:56:07 69.26,-164.18 67.39 03/24/2013 22:55:49 69.26,-164.17 67.38 0.69 18
3 03/27/2013 02:49:35 -69.40, -42.72 113.32 03/27/2013 02:50:39 -69.41, -42.69 113.32 1.24 64
4 03/27/2013 03:40:32 69.27, 124.72 66.54 03/27/2013 03:40:07 69.25, 124.74 66.51 3.16 25
5 03/29/2013 07:33:59 -69.39,-113.79 114.20 03/29/2013 07:34:57 -69.39,-113.79 114.20 0.14 58
6 03/29/2013 08:24:56 69.24, 53.68 65.64 03/29/2013 08:24:25 69.22, 53.64 65.63 2.14 31
7 03/31/2013 12:18:23 -69.38, 175.13 115.06 03/31/2013 12:19:15 -69.36, 175.10 115.08 2.69 52
8 03/31/2013 13:09:21 69.27, -17.45 64.82 03/31/2013 13:08:42 69.25, -17.40 64.80 2.66 39
9 04/02/2013 17:02:47 -69.39, 104.04 115.90 04/02/2013 17:03:32 -69.38, 104.05 115.91 1.22 45
10 04/02/2013 17:53:45 69.25, -88.51 63.95 04/02/2013 17:52:59 69.26, -88.46 63.96 2.97 46
11 04/04/2013 21:47:11 -69.40, 32.93 116.73 04/04/2013 21:47:49 -69.38, 32.98 116.75 3.04 38
12 04/04/2013 22:38:09 69.24,-159.59 63.10 04/04/2013 22:37:17 69.21,-159.59 63.07 2.79 52
